Temperature
26 24 23 22 22 21 21 21 20 20 20 19 19 19 19 19 19 18 18 18 18 18 18 18 18 18 18 18 18 18 18 18 18 18 18 18 18 18 18 18 18 18 17
25 24 23 22 22 21 21 21 20 20 20 19 19 19 19 18 18 18 18 18 18 18 18 18 18 18 18 18 18 18 18 18 18 18 18 18 18 18 18 18 18 18 18
26 24 23 22 22 21 21 21 20 20 20 19 19 18 18 18 18 18 18 18 18 18 18 18 18 18 18 18 18 18 18 18 18 18 18 18 18 18 18 18 18 18 18
26 25 23 23 22 21 21 20 20 20 20 19 19 18 18 18 19 18 18 18 18 18 18 18 18 18 18 18 18 18 18 18 18 18 18 18 18 18 18 18 18 18 18
26 25 24 23 22 21 21 20 20 20 20 19 19 19 18 18 18 18 18 18 18 18 18 18 18 18 18 18 18 18 18 18 18 18 18 18 18 18 18 18 18 18 18
27 25 24 23 22 21 21 20 20 20 20 19 19 19 19 19 18 18 18 18 18 18 18 18 18 18 18 18 18 18 18 18 18 18 18 18 18 18 18 18 18 18 17
27 25 24 23 22 21 21 20 20 20 19 19 19 19 19 19 19 18 18 18 18 18 18 18 18 18 18 18 18 18 18 17 18 18 18 18 18 18 18 18 18 17 17
27 25 24 23 22 22 21 20 20 20 20 19 19 19 19 19 18 18 18 18 18 18 18 18 18 18 18 18 17 17 17 17 17 17 17 18 18 17 17 17 17 17 17
27 26 24 23 22 22 21 20 20 20 20 19 19 19 19 19 18 18 18 18 18 18 18 18 18 18 18 17 17 17 17 17 17 17 17 17 17 17 17 17 17 17 16
27 26 25 24 23 22 21 20 20 20 20 19 19 19 19 18 18 18 18 18 18 18 18 18 17 17 17 17 17 17 17 17 17 17 17 17 17 17 17 17 17 17 17
27 26 25 24 23 22 21 20 20 20 19 19 19 19 18 18 18 18 18 18 18 17 17 17 17 17 17 17 17 17 17 17 17 17 16 17 17 16 16 16 16 16 16
27 26 25 24 23 22 21 20 20 19 19 19 19 19 18 18 18 18 17 17 17 17 17 17 17 17 17 17 17 17 16 16 16 16 16 16 16 16 16 16 16 16 16
27 26 25 24 23 22 21 21 20 20 19 19 19 19 18 18 18 18 17 17 17 17 17 17 17 17 17 16 16 16 16 16 16 16 16 16 16 16 15 15 15 15 15
26 25 24 24 23 22 21 21 20 20 19 19 19 18 18 18 18 17 17 17 17 17 17 17 17 17 16 16 16 16 16 16 16 16 16 15 15 15 15 15 15 15 15
26 25 24 23 22 22 21 21 20 20 19 19 18 18 18 18 17 17 17 17 17 16 17 17 16 16 16 16 16 16 15 15 15 15 15 15 15 15 15 14 14 14 14
26 25 24 23 22 21 21 20 20 19 19 19 18 18 18 17 17 17 17 17 16 16 16 16 16 16 16 16 16 15 15 15 15 15 15 15 14 14 14 14 14 14 14
26 25 24 22 22 21 21 20 20 19 19 19 18 18 18 17 17 17 17 16 16 16 16 16 16 16 16 16 15 15 15 15 14 14 14 14 14 14 14 14 13 13 13
26 25 24 22 21 21 20 20 19 19 19 18 18 18 17 17 17 17 17 16 16 16 16 16 15 15 15 15 15 15 14 14 14 14 14 13 13 13 13 13 13 13 12
26 25 23 22 21 20 20 20 19 19 18 18 18 17 17 17 17 17 16 16 16 15 15 15 15 15 15 14 14 14 14 14 14 13 13 13 13 12 12 12 12 12 12
25 24 23 22 21 20 20 19 19 19 18 18 18 17 17 17 17 16 16 16 15 15 15 15 15 14 14 14 14 14 13 13 13 13 13 12 12 12 12 12 12 11 11
24 23 22 21 20 20 19 19 18 18 18 17 17 17 17 16 16 16 16 15 15 15 14 14 14 14 14 14 13 13 13 13 13 12 12 12 12 11 11 11 11 11 10
22 22 21 20 20 19 19 18 18 18 18 17 17 16 16 16 16 16 15 15 15 14 14 14 14 14 14 13 13 13 13 12 12 12 12 11 11 11 11 11 10 10 10
21 20 20 19 19 19 18 18 18 17 17 17 16 16 16 15 15 15 15 14 14 14 14 13 13 13 13 13 13 12 12 12 12 11 11 11 10 10 10 10 10 9 9
20 19 19 18 18 18 17 17 17 17 16 16 16 15 15 15 15 14 14 14 14 13 13 13 13 13 13 12 12 12 11 11 11 10 10 10 10 9 9 9 9 9 9
19 18 18 17 17 17 17 17 17 16 16 16 15 15 15 14 14 14 13 13 13 13 13 13 12 12 12 12 12 11 11 11 10 10 10 9 9 9 9 9 9 9 9
18 17 17 17 17 16 16 16 16 16 16 15 15 14 14 14 13 13 13 13 13 13 12 12 12 12 12 11 11 10 10 10 10 9 9 9 9 8 8 8 8 8 8
Wind_Speed
13 13 13 13 12 11 10 10 9 9 8 6 6 5 4 4 4 4 7 8 7 6 4 2 3 3 2 3 3 2 3 3 3 2 2 2 3 3 3 3 3 5 10
13 13 12 12 12 12 11 10 9 10 9 7 5 4 4 4 5 3 5 7 7 7 7 4 3 3 3 3 3 2 2 3 3 2 1 1 2 2 4 3 3 3 4
15 14 13 12 12 12 12 11 10 10 10 8 6 5 3 3 3 4 4 5 7 7 5 5 3 3 4 4 4 4 4 4 3 3 2 2 2 2 2 4 4 3 3
14 14 14 12 12 11 11 9 10 9 9 8 7 7 6 5 5 4 5 5 6 7 6 5 5 4 3 3 5 6 4 4 4 3 3 3 2 1 1 1 2 3 3
13 14 13 12 11 11 10 9 9 8 8 8 8 7 6 5 4 4 4 5 4 6 6 6 5 4 4 4 5 3 4 4 4 4 3 3 3 3 2 2 1 1 1
13 13 12 11 9 10 9 10 9 8 8 8 7 7 7 6 5 5 4 4 3 4 5 5 4 4 4 5 5 4 4 4 4 4 3 2 2 3 3 3 3 2 1
12 12 12 11 10 10 9 10 10 9 8 8 7 7 6 6 6 5 5 4 3 3 4 5 4 4 4 4 3 4 5 5 5 4 4 3 3 2 2 2 2 2 2
12 13 12 11 10 10 9 9 10 8 8 8 7 6 5 4 4 4 4 4 3 3 3 3 4 4 4 4 4 4 4 4 4 6 4 3 3 2 2 1 2 1 1
12 13 13 12 11 10 9 9 9 8 8 7 7 6 5 4 3 3 4 3 2 3 3 3 4 4 3 3 3 3 3 3 4 4 4 3 3 2 2 1 2 3 2
12 13 12 12 11 10 9 9 8 7 7 7 6 6 5 4 3 3 3 2 1 1 2 3 3 3 3 3 3 3 3 3 2 2 2 2 2 2 1 1 1 2 2
10 11 11 11 11 11 10 9 8 7 6 6 5 4 4 4 3 2 2 2 2 2 2 2 2 2 3 3 3 3 3 3 2 2 2 2 2 1 1 1 1 2 3
12 12 12 11 10 11 11 10 9 8 6 5 5 4 4 4 3 3 2 2 2 2 1 1 1 2 2 2 2 2 2 1 2 2 2 2 1 1 1 1 1 2 3
12 12 12 11 10 9 9 9 8 8 7 6 6 5 4 4 4 3 2 2 2 1 1 1 1 1 0 1 1 1 1 1 1 1 1 1 1 1 1 1 1 1 3
11 11 10 9 9 9 8 7 7 7 7 7 6 6 5 5 4 4 2 2 2 1 1 1 0 0 0 1 1 1 1 1 1 1 1 2 1 0 1 1 2 3 4
11 11 11 10 9 9 8 7 7 7 7 7 6 6 5 5 5 4 3 2 2 2 2 2 2 2 2 2 1 1 2 2 2 3 3 4 5 5 3 2 2 2 3
12 12 12 12 11 10 9 8 7 7 7 6 6 6 6 6 5 4 3 3 3 2 3 3 3 4 3 5 5 3 2 3 3 4 4 4 5 7 9 9 8 6 4
12 12 13 11 10 10 9 9 8 7 7 6 6 6 6 5 5 4 4 3 3 3 3 3 4 4 5 7 7 6 4 4 4 4 3 4 5 6 6 8 10 10 10
12 12 13 12 11 10 10 9 9 7 7 6 6 6 5 5 5 4 4 4 3 3 3 3 4 4 6 7 7 6 6 5 6 6 5 5 5 5 5 7 8 8 7
9 10 11 12 11 10 9 9 8 8 7 7 6 5 5 5 5 5 4 4 4 4 3 3 4 5 6 7 6 5 5 5 6 6 6 6 7 7 7 8 8 8 7
9 10 11 11 10 9 9 9 8 8 7 6 6 5 5 5 5 5 5 4 4 4 4 4 4 5 5 6 6 4 4 5 5 6 7 10 8 7 7 7 7 7 6
9 10 10 10 9 9 8 7 7 6 6 6 6 5 5 5 5 5 4 4 4 4 4 5 5 5 6 6 7 5 3 5 5 5 5 5 7 8 8 7 6 7 6
9 10 9 9 8 8 8 7 6 6 6 6 6 5 5 4 5 5 5 4 4 4 4 5 5 5 5 6 7 8 7 5 6 5 5 5 7 8 8 6 6 6 4
8 9 10 9 8 7 6 7 6 6 6 6 6 6 5 4 5 5 5 4 3 3 4 4 4 5 5 6 9 10 10 10 7 6 8 8 8 7 6 6 4 2 1
8 8 9 8 7 6 5 6 6 6 6 6 6 6 5 5 5 3 2 3 2 2 2 3 4 5 5 5 5 6 7 9 8 7 8 7 5 4 4 4 2 1 2
6 7 7 7 7 6 6 6 5 6 6 6 6 5 5 6 5 5 5 4 4 2 1 2 3 4 4 4 5 5 5 5 6 6 5 4 3 3 2 2 2 2 3
6 6 6 7 6 6 6 5 4 5 6 5 5 4 5 5 6 6 6 12 9 10 10 8 6 5 8 10 10 8 9 9 8 5 4 4 3 3 3 3 2 2 2
Wind_Direction
165 157 159 160 160 161 166 170 181 172 170 171 177 190 189 192 201 192 179 180 192 200 203 221 177 203 179 180 190 188 202 227 233 233 227 224 216 211 193 199 186 190 190
161 159 162 165 166 167 171 175 182 177 180 180 184 189 186 196 203 197 170 182 190 195 204 206 203 202 185 201 216 203 221 239 228 222 241 260 271 251 216 185 199 197 184
166 165 167 170 172 175 177 182 182 179 183 180 182 189 179 208 206 187 182 193 197 205 208 191 204 207 205 203 214 218 216 233 242 220 194 189 225 246 233 208 189 166 165
163 165 169 173 177 177 177 175 176 176 178 182 192 192 192 201 210 196 186 194 201 202 206 201 201 219 227 203 217 218 221 228 239 238 222 222 192 198 250 269 185 174 161
162 163 165 168 171 171 170 172 172 174 175 186 195 201 204 200 202 194 185 194 200 203 208 206 197 211 227 221 227 227 226 228 236 243 224 229 222 220 204 227 212 152 146
154 153 155 156 162 164 165 167 169 172 175 185 197 203 207 202 195 196 194 200 202 210 213 211 203 207 216 223 226 220 221 227 245 260 259 235 223 226 221 221 197 177 185
146 149 152 156 159 163 166 166 166 173 179 187 197 203 211 208 204 205 201 203 205 207 205 213 206 213 215 217 219 219 225 218 227 241 254 258 259 248 244 225 213 195 166
150 153 155 156 162 167 164 161 165 172 180 186 192 196 204 208 208 207 207 208 211 211 193 205 205 210 217 220 212 224 222 215 225 238 243 254 261 270 246 214 199 204 215
151 153 153 156 161 163 161 162 160 170 179 184 183 187 194 200 202 195 202 217 219 203 187 199 209 208 209 218 211 215 224 210 215 231 235 245 252 255 264 235 199 195 218
153 153 155 156 157 157 154 154 156 167 173 176 182 181 182 187 186 194 196 183 213 230 195 206 209 207 201 212 210 209 203 206 215 218 230 256 267 268 259 243 231 205 200
150 150 150 150 151 148 149 151 151 157 162 166 165 164 161 164 160 167 183 181 194 215 209 201 199 202 202 210 204 207 200 210 220 230 229 233 252 264 277 263 230 192 167
151 150 148 148 150 149 149 151 156 156 155 150 148 151 150 147 150 161 170 176 188 200 204 201 194 214 210 205 201 214 216 217 222 226 230 238 220 201 252 256 239 181 171
148 149 151 152 154 147 146 151 156 154 153 148 145 142 146 144 143 140 139 144 151 170 174 161 184 221 259 240 201 190 209 209 217 201 209 221 188 214 246 219 188 160 153
150 152 148 145 143 141 142 149 151 145 147 145 143 141 144 141 137 132 129 130 129 137 126 119 122 114 76 56 108 144 173 154 95 68 63 57 56 262 226 183 142 133 134
161 156 152 148 146 143 147 151 146 142 141 145 147 144 141 138 135 130 128 125 121 114 92 72 59 50 66 49 58 112 124 112 98 83 81 83 84 73 73 91 94 125 143
169 163 159 157 157 155 159 154 149 144 142 147 144 138 138 134 132 135 134 122 107 85 78 61 60 57 52 53 64 85 93 101 104 102 96 95 87 84 79 77 73 78 114
173 168 163 161 160 161 160 155 149 147 148 147 142 140 144 143 140 142 130 120 108 95 86 77 82 79 61 62 69 70 85 86 89 93 90 86 86 87 90 83 74 63 63
172 167 163 161 160 162 159 153 150 149 149 146 148 149 151 143 134 128 123 120 112 105 97 92 92 89 73 65 63 67 87 82 75 71 73 81 73 69 87 91 81 70 59
155 153 157 157 155 155 151 153 154 154 156 153 151 150 145 137 134 128 118 113 114 110 104 97 95 95 81 62 64 69 100 93 83 75 69 79 80 65 89 101 99 92 79
135 139 144 142 146 146 149 154 157 157 155 147 143 140 137 135 132 126 119 116 116 115 107 97 89 91 88 67 60 61 111 106 98 88 77 71 77 74 86 108 109 105 100
125 132 135 139 140 141 144 150 148 147 140 134 133 134 131 128 130 124 120 123 123 120 113 106 98 92 91 77 54 46 98 116 114 105 94 79 77 81 84 97 106 120 122
127 131 131 129 130 138 145 144 141 135 132 130 131 128 128 133 132 127 129 130 133 133 130 127 118 104 92 77 69 64 69 99 110 108 106 101 94 91 91 95 107 117 118
125 130 129 124 126 132 140 144 135 132 134 134 132 125 120 109 118 133 139 143 155 158 149 150 140 127 116 97 85 78 76 82 94 100 108 115 112 106 100 101 99 97 114
123 127 131 131 124 120 120 121 126 130 135 134 131 129 129 124 113 110 125 136 139 150 147 144 137 131 129 128 120 108 101 99 104 110 110 107 99 101 110 114 110 83 78
124 125 125 127 130 128 123 122 129 137 139 138 138 142 140 134 114 90 52 61 57 56 108 123 127 142 143 134 135 141 134 131 125 130 133 130 129 139 146 135 123 116 110
117 121 124 126 130 129 124 122 129 141 145 147 151 154 147 137 136 124 90 55 61 61 61 71 92 97 114 121 112 107 109 116 133 135 143 151 156 152 145 139 134 124 119
Height
1516 1519 1522 1525 1527 1529 1531 1533 1536 1538 1540 1543 1545 1547 1550 1552 1554 1556 1558 1559 1561 1563 1565 1566 1567 1569 1570 1571 1572 1574 1574 1575 1576 1576 1576 1577 1577 1578 1578 1579 1579 1579 1580
1513 1517 1521 1523 1525 1527 1529 1531 1534 1536 1539 1541 1543 1546 1549 1551 1553 1555 1556 1557 1559 1561 1563 1565 1566 1567 1568 1569 1571 1572 1572 1573 1574 1575 1575 1575 1576 1575 1576 1576 1577 1578 1578
1509 1514 1518 1521 1524 1525 1527 1529 1531 1534 1537 1540 1542 1545 1547 1549 1551 1552 1553 1556 1558 1559 1561 1562 1564 1565 1566 1567 1568 1569 1570 1571 1572 1573 1574 1574 1574 1574 1575 1574 1575 1575 1577
1507 1512 1515 1519 1522 1524 1526 1528 1530 1533 1535 1538 1540 1543 1544 1546 1548 1550 1551 1553 1555 1557 1558 1559 1561 1562 1563 1564 1565 1566 1568 1569 1570 1570 1571 1572 1572 1573 1572 1573 1573 1573 1574
1505 1510 1513 1517 1521 1523 1525 1527 1529 1531 1533 1535 1538 1540 1543 1545 1546 1548 1549 1551 1553 1554 1555 1557 1558 1559 1560 1561 1562 1563 1564 1566 1567 1568 1569 1569 1570 1570 1571 1570 1571 1572 1572
1504 1509 1513 1516 1520 1522 1524 1525 1527 1529 1531 1534 1536 1538 1540 1542 1544 1545 1547 1548 1550 1551 1552 1554 1555 1556 1557 1558 1559 1560 1561 1562 1563 1565 1566 1566 1567 1567 1568 1568 1568 1569 1570
1503 1508 1512 1516 1519 1521 1523 1524 1526 1527 1530 1532 1534 1536 1538 1540 1541 1543 1544 1546 1547 1548 1549 1551 1552 1553 1554 1555 1556 1557 1558 1559 1560 1561 1562 1563 1564 1565 1565 1565 1566 1566 1567
1502 1507 1511 1514 1517 1520 1522 1523 1525 1526 1528 1530 1532 1534 1536 1538 1539 1540 1541 1543 1544 1545 1546 1548 1548 1549 1550 1551 1552 1553 1554 1555 1557 1558 1559 1560 1560 1561 1562 1562 1563 1564 1565
1502 1506 1510 1513 1516 1519 1521 1522 1524 1525 1527 1529 1530 1532 1534 1535 1537 1538 1539 1540 1541 1543 1544 1545 1545 1546 1547 1548 1549 1550 1551 1552 1553 1554 1556 1556 1557 1558 1558 1559 1560 1561 1561
1501 1506 1509 1512 1515 1518 1520 1522 1523 1525 1526 1528 1529 1531 1532 1534 1535 1536 1537 1537 1538 1540 1541 1542 1543 1543 1544 1545 1546 1547 1548 1549 1550 1551 1552 1553 1553 1554 1555 1555 1556 1557 1558
1501 1504 1509 1512 1515 1517 1519 1521 1522 1524 1525 1527 1528 1529 1531 1532 1533 1534 1534 1535 1536 1538 1538 1539 1540 1541 1541 1542 1543 1544 1545 1546 1547 1548 1549 1549 1550 1550 1551 1552 1552 1553 1554
1500 1504 1508 1512 1514 1517 1519 1520 1522 1523 1524 1526 1527 1528 1529 1530 1531 1532 1533 1534 1535 1536 1536 1537 1538 1538 1539 1540 1540 1541 1542 1543 1543 1544 1545 1546 1546 1547 1547 1548 1548 1549 1550
1500 1504 1508 1511 1513 1516 1518 1520 1522 1523 1524 1525 1525 1526 1527 1528 1529 1531 1532 1532 1533 1534 1535 1535 1535 1536 1536 1537 1538 1538 1539 1540 1541 1541 1542 1542 1543 1543 1544 1544 1545 1546 1546
1499 1503 1506 1509 1512 1515 1517 1520 1521 1522 1523 1524 1525 1526 1526 1527 1529 1529 1531 1531 1532 1532 1533 1533 1534 1534 1535 1535 1535 1536 1537 1537 1538 1538 1539 1539 1540 1540 1541 1541 1542 1542 1543
1498 1502 1505 1508 1511 1514 1516 1519 1520 1522 1523 1524 1525 1525 1526 1527 1528 1529 1530 1531 1531 1532 1532 1532 1532 1533 1532 1533 1533 1534 1534 1535 1535 1536 1536 1536 1537 1537 1538 1539 1539 1540 1540
1496 1500 1504 1507 1510 1512 1515 1517 1519 1521 1522 1523 1524 1525 1526 1527 1527 1528 1529 1530 1530 1531 1531 1531 1531 1531 1531 1531 1531 1532 1533 1533 1533 1534 1534 1534 1535 1535 1536 1537 1537 1538 1538
1494 1498 1502 1505 1508 1511 1513 1515 1517 1519 1521 1522 1523 1524 1525 1526 1527 1528 1528 1529 1529 1530 1530 1530 1530 1530 1530 1530 1531 1531 1531 1531 1532 1532 1533 1533 1533 1534 1534 1535 1536 1536 1537
1492 1496 1500 1503 1506 1509 1512 1514 1516 1518 1519 1521 1522 1523 1524 1525 1526 1527 1528 1528 1528 1528 1529 1529 1529 1529 1530 1530 1530 1530 1531 1531 1531 1531 1532 1532 1532 1533 1533 1534 1534 1535 1536
1490 1494 1498 1502 1505 1508 1510 1512 1515 1516 1518 1519 1521 1522 1523 1524 1525 1526 1526 1527 1527 1527 1528 1528 1529 1529 1529 1530 1530 1530 1530 1530 1530 1531 1531 1532 1532 1533 1533 1533 1533 1534 1535
1489 1493 1497 1500 1503 1506 1508 1511 1513 1515 1517 1518 1519 1520 1522 1523 1524 1524 1525 1526 1526 1527 1527 1527 1528 1528 1528 1529 1530 1530 1530 1530 1530 1530 1531 1531 1532 1532 1533 1534 1534 1534 1535
1489 1493 1496 1499 1502 1505 1507 1510 1512 1513 1515 1516 1518 1519 1520 1521 1522 1523 1524 1525 1525 1526 1526 1526 1527 1528 1528 1529 1529 1530 1530 1529 1530 1530 1530 1531 1532 1532 1533 1534 1534 1535 1536
1490 1493 1495 1498 1501 1503 1506 1508 1510 1512 1513 1515 1516 1517 1519 1520 1521 1522 1522 1523 1524 1525 1525 1526 1526 1527 1527 1528 1529 1529 1529 1529 1530 1530 1531 1531 1532 1533 1534 1534 1535 1536 1537
1491 1493 1495 1498 1500 1503 1505 1507 1509 1511 1512 1513 1515 1516 1517 1518 1519 1520 1521 1522 1523 1524 1524 1525 1525 1526 1526 1527 1528 1528 1529 1529 1529 1530 1531 1532 1532 1533 1534 1535 1536 1537 1538
1491 1493 1495 1497 1499 1502 1504 1506 1508 1509 1511 1512 1513 1514 1516 1517 1518 1519 1520 1521 1522 1523 1524 1524 1524 1524 1525 1526 1527 1527 1528 1528 1529 1530 1531 1532 1533 1534 1535 1536 1537 1538 1539
1492 1493 1495 1497 1499 1501 1503 1504 1506 1508 1509 1510 1512 1513 1514 1516 1517 1518 1519 1520 1521 1522 1523 1523 1523 1524 1524 1525 1526 1526 1527 1528 1529 1530 1530 1532 1533 1534 1535 1536 1537 1538 1539
1491 1493 1495 1497 1499 1500 1502 1503 1505 1506 1507 1508 1510 1512 1513 1514 1515 1516 1517 1518 1519 1520 1521 1522 1522 1522 1523 1524 1525 1526 1527 1528 1529 1530 1530 1531 1533 1534 1535 1536 1537 1538 1539